CW3833 Weather Reports


time (UTC)temp
F
wind
direction
speed
knots
gust
knots
rain 1hr
in
rain 24hr
in
rain mn
in
humidity
%
barometer
mb
20260509064558 46 0 0.0 3.5 0.00 0.04 0.00 55 1008.5
20260509063056 46 0 0.0 2.6 0.00 0.04 0.00 56 1008.9
20260509061615 45 0 0.0 3.5 0.00 0.04 0.00 58 1009.0
20260509060129 45 135 0.0 2.6 0.00 0.04 0.00 58 1009.3
20260509054603 45 127 0.9 3.5 0.00 0.04 0.00 60 1009.3
20260509053058 45 112 0.0 3.5 0.00 0.04 0.00 62 1009.4
20260509051600 45 0 0.0 2.6 0.00 0.04 0.00 61 1009.7
20260509050137 45 0 0.0 0.9 0.00 0.04 0.00 61 1009.8
20260509044603 45 98 0.0 2.6 0.00 0.04 0.00 62 1009.9
20260509043058 45 141 0.9 6.1 0.00 0.04 0.00 64 1009.9
20260509041557 45 0 0.9 5.2 0.00 0.04 0.00 66 1010.1
20260509040058 44 0 0.0 2.6 0.00 0.04 0.00 67 1009.9
20260509034557 45 81 0.9 3.5 0.00 0.04 0.04 66 1010.1
20260509033057 45 114 1.7 8.7 0.00 0.04 0.04 65 1010.1
20260509031556 45 103 1.7 5.2 0.00 0.04 0.04 66 1010.1
20260509030057 44 121 0.9 4.3 0.00 0.04 0.04 67 1010.1
20260509024600 44 119 0.9 4.3 0.00 0.04 0.04 66 1010.3
20260509023104 45 0 0.0 4.3 0.00 0.04 0.04 65 1010.3
20260509021557 46 0 0.0 1.7 0.00 0.04 0.04 64 1010.5
20260509020059 46 50 0.9 2.6 0.00 0.04 0.04 62 1010.6
20260509014557 47 0 0.0 0.9 0.00 0.04 0.04 62 1010.5
20260509013101 47 0 0.0 0.0 0.00 0.04 0.04 57 1010.4
20260509011601 47 0 0.0 0.0 0.00 0.04 0.04 56 1010.2
20260509010059 47 0 0.0 0.0 0.00 0.04 0.04 57 1010.0
20260509004559 48 0 0.0 0.0 0.00 0.04 0.04 55 1009.9
20260509003106 49 0 0.0 0.0 0.00 0.04 0.04 54 1009.6
20260509001556 49 0 0.0 0.0 0.00 0.04 0.04 54 1009.6
20260509000105 50 0 0.0 0.0 0.00 0.04 0.04 56 1009.5
20260508234559 51 0 0.0 0.0 0.00 0.04 0.04 53 1009.5
20260508233056 53 0 0.0 0.0 0.00 0.04 0.04 53 1009.4
20260508231559 53 306 0.0 2.6 0.00 0.04 0.04 44 1009.3
20260508230106 54 0 0.9 6.1 0.00 0.04 0.04 43 1009.3
20260508224555 56 313 1.7 3.5 0.00 0.04 0.04 42 1009.3
20260508223055 55 260 0.9 4.3 0.00 0.04 0.04 45 1009.2
20260508221604 55 250 1.7 6.1 0.00 0.04 0.04 43 1009.2
20260508220058 54 161 1.7 5.2 0.00 0.04 0.04 46 1009.2
20260508214608 54 213 1.7 7.0 0.00 0.04 0.04 45 1009.3
20260508213058 54 273 2.6 7.8 0.00 0.04 0.04 44 1009.4
20260508211559 55 206 2.6 9.6 0.00 0.04 0.04 45 1009.5
20260508210055 54 238 2.6 5.2 0.00 0.04 0.04 46 1009.5
20260508204603 54 227 2.6 8.7 0.00 0.04 0.04 43 1009.6
20260508203057 54 202 3.5 8.7 0.00 0.04 0.04 49 1009.9
20260508201602 53 333 1.7 6.1 0.00 0.04 0.04 55 1010.0
20260508200057 53 295 2.6 6.1 0.00 0.04 0.04 48 1010.3
20260508194623 52 211 4.3 9.6 0.00 0.04 0.04 50 1010.3
20260508193106 53 188 5.2 13.0 0.00 0.04 0.04 52 1010.4
20260508191559 52 179 4.3 10.4 0.00 0.04 0.04 55 1010.5
20260508190057 53 355 1.7 9.6 0.00 0.04 0.04 54 1010.6
20260508184600 51 273 5.2 10.4 0.00 0.04 0.04 51 1010.6
20260508183055 52 185 4.3 9.6 0.00 0.04 0.04 57 1010.7
20260508181635 51 227 3.5 8.7 0.00 0.04 0.04 59 1010.7
20260508180110 50 257 4.3 11.3 0.00 0.04 0.04 58 1010.8
20260508174603 49 254 3.5 10.4 0.00 0.04 0.04 64 1011.0
20260508173057 47 248 2.6 10.4 0.00 0.04 0.04 67 1011.2
20260508171557 47 232 0.0 9.6 0.00 0.04 0.04 70 1011.4
20260508170056 46 243 2.6 8.7 0.00 0.04 0.04 71 1011.4
20260508164559 47 204 4.3 13.0 0.00 0.04 0.04 73 1011.5
20260508163105 45 252 1.7 8.7 0.00 0.04 0.04 78 1011.6
20260508161607 44 243 4.3 9.6 0.00 0.04 0.04 79 1011.8
20260508160059 44 205 4.3 13.9 0.00 0.04 0.04 79 1011.8
20260508154559 43 261 3.5 7.8 0.00 0.04 0.04 80 1011.8
20260508153057 41 205 2.6 8.7 0.00 0.04 0.04 81 1011.7
20260508151607 41 186 3.5 8.7 0.00 0.04 0.04 81 1011.7
20260508150059 40 214 2.6 5.2 0.00 0.04 0.04 81 1011.7
20260508144559 40 226 2.6 5.2 0.00 0.04 0.04 81 1011.7
20260508143056 40 212 0.9 4.3 0.00 0.04 0.04 81 1011.7
20260508141601 39 195 1.7 5.2 0.00 0.04 0.04 80 1011.7
20260508140057 39 0 1.7 6.1 0.01 0.04 0.04 81 1011.2
20260508134604 39 252 1.7 5.2 0.02 0.04 0.04 81 1011.6
20260508133108 39 244 1.7 5.2 0.03 0.04 0.04 81 1011.7
20260508131559 38 229 0.9 4.3 0.04 0.04 0.04 81 1011.8
20260508130112 39 258 1.7 5.2 0.03 0.03 0.03 81 1011.6
20260508124557 39 238 0.9 5.2 0.02 0.02 0.02 81 1011.6
20260508123105 40 250 0.9 7.0 0.01 0.01 0.01 81 1011.6
20260508121559 40 0 1.7 5.2 0.00 0.00 0.00 81 1011.1
20260508114556 41 274 2.6 6.1 0.00 0.00 0.00 80 1010.6
20260508113110 41 310 0.9 3.5 0.00 0.00 0.00 81 1010.3
20260508111606 40 229 1.7 3.5 0.00 0.00 0.00 81 1010.1
20260508110103 40 196 1.7 4.3 0.00 0.00 0.00 81 1009.9
20260508104557 40 190 1.7 4.3 0.00 0.00 0.00 81 1010.0
20260508103058 40 182 0.9 3.5 0.00 0.00 0.00 81 1009.7
20260508101556 40 192 0.9 3.5 0.00 0.00 0.00 81 1009.8
20260508100058 40 225 1.7 4.3 0.00 0.00 0.00 81 1010.0
20260508094607 40 215 1.7 4.3 0.00 0.00 0.00 81 1010.2
20260508093100 39 208 1.7 5.2 0.00 0.00 0.00 80 1010.4
20260508091602 39 235 0.9 3.5 0.00 0.00 0.00 81 1010.5
20260508090057 39 0 0.0 2.6 0.00 0.00 0.00 80 1010.4
20260508084602 38 0 0.0 2.6 0.00 0.00 0.00 81 1010.3
20260508083102 38 0 0.0 1.7 0.00 0.00 0.00 81 1010.4
20260508081634 38 0 0.0 1.7 0.00 0.00 0.00 81 1010.1
20260508080058 38 0 0.0 3.5 0.00 0.00 0.00 81 1010.0
20260508074557 38 0 0.0 3.5 0.00 0.00 0.00 81 1010.2
20260508073104 38 0 0.0 2.6 0.00 0.00 0.00 81 1010.0
20260508071601 38 0 0.0 2.6 0.00 0.00 0.00 81 1010.1
20260508070106 38 0 0.0 1.7 0.00 0.00 0.00 81 1010.3